| time (UTC) | temp C | wind direction | speed KPH | gust KPH | rain 1hr cm | rain 24hr cm | rain mn cm | humidity % | barometer mb |
| 20260507233801 | 0 | 281 | 3.2 | 3.2 | 0.00 | 0.00 | 0.00 | 71 | 1021.5 |
| 20260507231801 | 1 | 176 | 3.2 | 3.2 | 0.00 | 0.00 | 0.00 | 69 | 1021.5 |
| 20260507225801 | 1 | 190 | 1.6 | 1.6 | 0.00 | 0.00 | 0.00 | 65 | 1021.4 |
| 20260507223801 | 1 | 228 | 1.6 | 3.2 | 0.00 | 0.00 | 0.00 | 68 | 1021.4 |
| 20260507221801 | 2 | 128 | 1.6 | 1.6 | 0.00 | 0.00 | 0.00 | 63 | 1021.3 |
| 20260507215801 | 2 | 325 | 4.8 | 4.8 | 0.00 | 0.00 | 0.00 | 62 | 1020.3 |
| 20260507213801 | 2 | 127 | 3.2 | 3.2 | 0.00 | 0.00 | 0.00 | 64 | 1020.3 |
| 20260507211802 | 2 | 223 | 1.6 | 3.2 | 0.00 | 0.00 | 0.00 | 61 | 1020.3 |
| 20260507205802 | 4 | 183 | 3.2 | 3.2 | 0.00 | 0.00 | 0.00 | 54 | 1020.1 |
| 20260507203802 | 4 | 262 | 6.4 | 9.7 | 0.00 | 0.00 | 0.00 | 52 | 1020.1 |
| 20260507201802 | 5 | 261 | 4.8 | 6.4 | 0.00 | 0.00 | 0.00 | 51 | 1020.0 |
| 20260507195802 | 5 | 245 | 4.8 | 4.8 | 0.00 | 0.00 | 0.00 | 55 | 1020.1 |
| 20260507193802 | 7 | 138 | 0.0 | 0.0 | 0.00 | 0.00 | 0.00 | 42 | 1018.8 |
| 20260507191802 | 8 | 172 | 1.6 | 1.6 | 0.00 | 0.00 | 0.00 | 40 | 1018.7 |
| 20260507185802 | 9 | 207 | 3.2 | 4.8 | 0.00 | 0.00 | 0.00 | 37 | 1018.6 |
| 20260507183928 | 10 | 215 | 3.2 | 3.2 | 0.00 | 0.00 | 0.00 | 37 | 1018.5 |
| 20260507183802 | 10 | 215 | 3.2 | 3.2 | 0.00 | 0.00 | 0.00 | 37 | 1018.5 |
| 20260507182523 | 13 | 167 | 0.0 | 0.0 | 0.00 | 0.00 | 0.00 | 27 | 1017.1 |
| 20260507181802 | 13 | 167 | 0.0 | 0.0 | 0.00 | 0.00 | 0.00 | 27 | 1017.1 |
| 20260507175802 | 14 | 170 | 0.0 | 1.6 | 0.00 | 0.00 | 0.00 | 22 | 1017.1 |
| 20260507173947 | 13 | 191 | 3.2 | 4.8 | 0.00 | 0.00 | 0.00 | 22 | 1017.1 |
| 20260507173802 | 13 | 191 | 3.2 | 4.8 | 0.00 | 0.00 | 0.00 | 22 | 1017.1 |
| 20260507173118 | 14 | 171 | 0.0 | 0.0 | 0.00 | 0.00 | 0.00 | 21 | 1017.1 |
| 20260507171802 | 14 | 171 | 0.0 | 0.0 | 0.00 | 0.00 | 0.00 | 21 | 1017.1 |
| 20260507165802 | 14 | 24 | 1.6 | 3.2 | 0.00 | 0.00 | 0.00 | 22 | 1017.1 |
| 20260507163802 | 13 | 127 | 6.4 | 9.7 | 0.00 | 0.00 | 0.00 | 24 | 1017.1 |
| 20260507161802 | 13 | 167 | 6.4 | 11.3 | 0.00 | 0.00 | 0.00 | 23 | 1017.1 |
| 20260507155802 | 15 | 148 | 3.2 | 4.8 | 0.00 | 0.00 | 0.00 | 23 | 1017.0 |
| 20260507153802 | 14 | 232 | 1.6 | 3.2 | 0.00 | 0.00 | 0.00 | 22 | 1017.1 |
| 20260507151802 | 16 | 254 | 8.0 | 12.9 | 0.00 | 0.00 | 0.00 | 22 | 1016.9 |
| 20260507145802 | 14 | 192 | 3.2 | 3.2 | 0.00 | 0.00 | 0.00 | 23 | 1017.1 |
| 20260507143802 | 13 | 171 | 1.6 | 1.6 | 0.00 | 0.00 | 0.00 | 23 | 1017.1 |
| 20260507141802 | 15 | 228 | 1.6 | 3.2 | 0.00 | 0.00 | 0.00 | 24 | 1017.0 |
| 20260507135802 | 13 | 340 | 9.7 | 12.9 | 0.00 | 0.00 | 0.00 | 25 | 1017.1 |
| 20260507133802 | 13 | 150 | 6.4 | 11.3 | 0.00 | 0.00 | 0.00 | 26 | 1017.1 |
| 20260507131802 | 13 | 174 | 3.2 | 6.4 | 0.00 | 0.00 | 0.00 | 27 | 1017.1 |
| 20260507125802 | 12 | 129 | 6.4 | 9.7 | 0.00 | 0.00 | 0.00 | 30 | 1017.2 |
| 20260507123802 | 11 | 88 | 8.0 | 11.3 | 0.00 | 0.00 | 0.00 | 33 | 1017.3 |
| 20260507121802 | 13 | 145 | 8.0 | 9.7 | 0.00 | 0.00 | 0.00 | 29 | 1017.1 |
| 20260507115802 | 12 | 158 | 3.2 | 4.8 | 0.00 | 0.00 | 0.00 | 28 | 1017.1 |
| 20260507113802 | 14 | 138 | 0.0 | 0.0 | 0.00 | 0.00 | 0.00 | 27 | 1017.1 |
| 20260507111802 | 13 | 122 | 0.0 | 3.2 | 0.00 | 0.00 | 0.00 | 25 | 1017.1 |
| 20260507105802 | 11 | 164 | 1.6 | 1.6 | 0.00 | 0.00 | 0.00 | 28 | 1017.3 |
| 20260507103802 | 10 | 346 | 3.2 | 4.8 | 0.00 | 0.00 | 0.00 | 27 | 1017.4 |
| 20260507101802 | 10 | 173 | 1.6 | 3.2 | 0.00 | 0.00 | 0.00 | 29 | 1016.5 |
| 20260507095802 | 11 | 136 | 0.0 | 1.6 | 0.00 | 0.00 | 0.00 | 29 | 1016.3 |
| 20260507093802 | 12 | 336 | 4.8 | 6.4 | 0.00 | 0.00 | 0.00 | 29 | 1016.2 |
| 20260507091801 | 11 | 97 | 0.0 | 1.6 | 0.00 | 0.00 | 0.00 | 31 | 1016.3 |
| 20260507083802 | 11 | 162 | 1.6 | 3.2 | 0.00 | 0.00 | 0.00 | 36 | 1017.3 |
| 20260507081802 | 11 | 159 | 0.0 | 0.0 | 0.00 | 0.00 | 0.00 | 35 | 1016.3 |
| 20260507080809 | 11 | 154 | 0.0 | 1.6 | 0.00 | 0.00 | 0.00 | 33 | 1016.3 |
| 20260507075802 | 11 | 154 | 0.0 | 1.6 | 0.00 | 0.00 | 0.00 | 33 | 1016.3 |
| 20260507073802 | 9 | 138 | 1.6 | 1.6 | 0.00 | 0.00 | 0.00 | 38 | 1016.5 |
| 20260507071802 | 9 | 128 | 9.7 | 11.3 | 0.00 | 0.00 | 0.00 | 39 | 1016.5 |
| 20260507065802 | 8 | 145 | 4.8 | 6.4 | 0.00 | 0.00 | 0.00 | 40 | 1016.6 |
| 20260507063802 | 6 | 106 | 1.6 | 1.6 | 0.00 | 0.00 | 0.00 | 44 | 1016.8 |
| 20260507061802 | 7 | 152 | 3.2 | 4.8 | 0.00 | 0.00 | 0.00 | 45 | 1016.7 |
| 20260507055802 | 6 | 117 | 1.6 | 1.6 | 0.00 | 0.00 | 0.00 | 48 | 1016.8 |
| 20260507054002 | 6 | 153 | 3.2 | 3.2 | 0.00 | 0.00 | 0.00 | 48 | 1016.8 |
| 20260507053801 | 6 | 153 | 3.2 | 3.2 | 0.00 | 0.00 | 0.00 | 48 | 1016.8 |
| 20260507051802 | 4 | 131 | 0.0 | 0.0 | 0.00 | 0.00 | 0.00 | 48 | 1016.0 |
| 20260507045801 | 2 | 255 | 3.2 | 4.8 | 0.00 | 0.00 | 0.00 | 52 | 1016.2 |
| 20260507043801 | 2 | 123 | 0.0 | 1.6 | 0.00 | 0.00 | 0.00 | 53 | 1016.2 |
| 20260507041803 | 1 | 147 | 0.0 | 0.0 | 0.00 | 0.00 | 0.00 | 58 | 1016.3 |
| 20260507040702 | 1 | 163 | 0.0 | 0.0 | 0.00 | 0.00 | 0.00 | 59 | 1016.4 |
| 20260507035802 | 1 | 163 | 0.0 | 0.0 | 0.00 | 0.00 | 0.00 | 59 | 1016.4 |
| 20260507035156 | 1 | 144 | 0.0 | 1.6 | 0.00 | 0.00 | 0.00 | 56 | 1016.3 |
| 20260507033802 | 1 | 144 | 0.0 | 1.6 | 0.00 | 0.00 | 0.00 | 56 | 1016.3 |
| 20260507031802 | 0 | 173 | 0.0 | 0.0 | 0.00 | 0.00 | 0.00 | 61 | 1016.4 |
| 20260507025801 | 1 | 143 | 4.8 | 6.4 | 0.00 | 0.00 | 0.00 | 53 | 1016.3 |
| 20260507021802 | 0 | 169 | 1.6 | 1.6 | 0.00 | 0.00 | 0.00 | 64 | 1015.4 |
| 20260507015803 | 1 | 148 | 0.0 | 0.0 | 0.00 | 0.00 | 0.00 | 55 | 1015.3 |
| 20260507013801 | 1 | 325 | 1.6 | 1.6 | 0.00 | 0.00 | 0.00 | 53 | 1015.3 |
| 20260507011802 | 1 | 178 | 1.6 | 1.6 | 0.00 | 0.00 | 0.00 | 58 | 1015.4 |
| 20260507005802 | 1 | 173 | 3.2 | 3.2 | 0.00 | 0.00 | 0.00 | 58 | 1015.4 |
| 20260507005125 | 0 | 182 | 1.6 | 1.6 | 0.00 | 0.00 | 0.00 | 66 | 1015.4 |
| 20260507003802 | 0 | 182 | 1.6 | 1.6 | 0.00 | 0.00 | 0.00 | 66 | 1015.4 |
| 20260507001801 | 0 | 183 | 1.6 | 1.6 | 0.00 | 0.00 | 0.00 | 62 | 1015.4 |
| 20260506235801 | 0 | 174 | 1.6 | 1.6 | 0.00 | 0.00 | 0.00 | 62 | 1015.4 |